This is the latest recevied weather packets stored in our database for station/object K0JRF-13. If no packets are shown the sender has not sent any weather packets the latest 10 day(s).
| Time | Temp. | Humidity | Pressure | Rain* | Wind** | Luminosity | Snow |
|---|---|---|---|---|---|---|---|
| 1787938193 | 20° C | 54% | 1021.7 hPa | 0 mm | - | - | - |
| 1787937593 | 20° C | 56% | 1022 hPa | 0 mm | - | - | - |
| 1787936994 | 20° C | 61% | 1022 hPa | 0 mm | - | - | - |
| 1787936394 | 21.11° C | 57% | 1022 hPa | 0 mm | - | - | - |
| 1787935793 | 21.11° C | 59% | 1022 hPa | 0 mm | - | - | - |
| 1787935193 | 21.11° C | 59% | 1022 hPa | 0 mm | - | - | - |
| 1787934593 | 21.11° C | 64% | 1021.7 hPa | 0 mm | - | - | - |
| 1787933994 | 21.11° C | 68% | 1022 hPa | 0 mm | - | - | - |
| 1787933393 | 21.11° C | 68% | 1021.7 hPa | 0 mm | - | - | - |
| 1787932793 | 20.56° C | 67% | 1021.7 hPa | 0 mm | - | - | - |
| 1787932194 | 20.56° C | 70% | 1021.7 hPa | 0 mm | - | - | - |
| 1787931593 | 20.56° C | 69% | 1022 hPa | 0 mm | - | - | - |
| 1787930994 | 20.56° C | 70% | 1021.7 hPa | 0 mm | - | - | - |
| 1787930393 | 21.11° C | 72% | 1021.7 hPa | 0 mm | - | - | - |
| 1787929794 | 21.11° C | 71% | 1021.7 hPa | 0 mm | - | - | - |
| 1787929193 | 20.56° C | 74% | 1021.7 hPa | 0 mm | - | - | - |
| 1787928593 | 21.11° C | 75% | 1021.3 hPa | 0 mm | - | - | - |
| 1787927993 | 20.56° C | 78% | 1021.3 hPa | 0 mm | - | - | - |
| 1787927393 | 20.56° C | 80% | 1021 hPa | 0 mm | - | - | - |
| 1787926794 | 20° C | 79% | 1021 hPa | 0 mm | - | - | - |
| 1787926193 | 19.44° C | 80% | 1021 hPa | 0 mm | - | - | - |
| 1787925593 | 19.44° C | 74% | 1020.7 hPa | 0 mm | - | - | - |
| 1787924993 | 20° C | 78% | 1020.7 hPa | 0 mm | - | - | - |
| 1787924393 | 19.44° C | 79% | 1020.7 hPa | 0 mm | - | - | - |
| 1787923793 | 20° C | 80% | 1020.7 hPa | 0 mm | - | - | - |
* Rain latest hour (hover to see other rain measurements)
** Current wind speed in m/s (hover to see current wind gust speed)